SCP
0 0 0 0 0 0 0 0 0 0 0 0 0 0 0 0 0 0 0 0 0 0 0 0 0 0 0 0 0 0 0 0 0 0 0 0 0 0 0 0 0 0 0
0 0 0 0 0 0 0 0 0 0 0 0 0 0 0 0 0 0 0 0 0 0 0 0 0 0 0 0 0 0 0 0 0 0 0 0 0 0 0 0 0 0 0
0 0 0 0 0 0 0 0 0 0 0 0 0 0 0 0 0 0 0 0 0 0 0 0 0 0 0 0 0 0 0 0 0 0 0 0 0 0 0 0 0 0 0
0 0 0 0 0 0 0 0 0 0 0 0 0 0 0 0 0 0 0 0 0 0 0 0 0 0 0 0 0 0 0 0 0 0 0 0 0 0 0 0 0 0 0
-0 0 0 0 0 0 0 0 0 0 0 0 0 0 0 0 0 0 0 0 0 0 0 0 0 0 0 0 0 0 0 0 0 0 0 0 0 0 0 0 0 0 0
0 0 0 0 0 0 0 0 0 0 0 0 0 0 0 0 0 0 0 0 0 0 0 0 0 0 0 0 0 0 0 0 0 0 -0 -0 0 0 -0 -0 -0 -0 -0
0 0 0 0 0 0 0 0 0 0 0 0 0 0 0 0 0 0 0 0 0 0 0 0 0 0 0 0 0 0 0 0 0 0 0 0 0 0 -0 -0 -0 -0 -0
0 0 0 0 0 0 0 0 0 0 0 0 0 0 0 0 0 0 0 0 0 0 0 0 0 0 0 0 0 0 0 0 0 0 0 0 0 0 0 0 0 0 0
0 0 0 0 0 0 0 0 0 0 0 0 0 0 0 0 0 0 0 0 0 0 0 0 0 0 0 0 0 0 0 0 0 0 0 0 0 0 0 0 0 0 0
0 0 0 0 0 0 0 0 0 0 0 0 0 0 0 0 0 0 0 0 0 0 0 0 0 0 0 0 0 0 0 0 0 0 0 0 0 0 0 0 0 0 0
0 0 0 0 0 0 0 0 0 0 0 0 0 0 0 0 0 0 0 0 0 0 0 0 0 0 0 -0 0 0 0 0 0 0 0 0 0 0 0 0 0 0 0
0 0 0 0 0 0 0 0 0 0 0 0 0 0 0 0 0 0 0 0 0 0 0 0 0 0 0 0 0 0 0 0 0 0 0 0 -0 -0 -0 0 0 0 0
0 0 0 0 0 0 0 0 0 0 0 0 0 0 0 0 0 0 0 0 0 0 0 0 0 0 0 0 0 0 0 0 0 0 -0 -0 -0 -0 -0 -0 0 0 0
0 0 0 0 0 0 0 0 0 0 0 0 0 0 0 0 0 0 0 0 0 0 0 0 0 0 0 0 0 0 0 0 0 -0 -0 -0 -0 -0 -0 -0 -0 -0 0
0 0 0 0 0 0 0 0 0 0 0 0 0 0 0 0 0 0 0 0 0 0 0 0 0 0 0 0 0 0 0 0 0 -0 -0 -0 -0 -0 -0 -0 -0 -0 -0
0 0 0 0 0 0 0 0 0 0 0 0 0 0 0 0 0 0 0 0 0 0 0 0 0 0 0 0 0 0 0 0 0 0 0 0 0 0 -0 -0 -0 -0 0
0 0 0 0 0 0 0 0 0 0 0 0 0 0 -0 -0 0 0 0 0 0 0 0 0 0 0 0 0 0 0 -0 0 0 0 0 0 0 0 0 -0 -0 0 0
0 0 0 0 0 0 0 0 0 0 0 0 0 0 -0 -0 0 0 0 0 0 0 0 0 0 0 0 0 0 0 0 0 0 0 0 0 0 0 0 0 0 0 0
0 0 0 0 0 0 0 0 0 0 0 0 -0 -0 0 0 0 0 0 0 0 0 0 0 0 0 0 0 0 0 0 -0 0 0 0 0 0 0 0 0 0 0 0
0 0 0 0 0 0 0 0 0 0 0 0 -0 -0 0 0 0 0 0 0 0 0 0 0 0 0 0 0 0 0 0 0 0 0 0 0 0 0 0 0 0 0 0
0 0 0 0 0 0 0 0 0 0 0 0 0 0 0 0 0 0 0 0 0 0 0 0 0 0 0 0 0 0 0 0 0 0 0 0 0 0 0 0 0 0 0
0 -0 0 0 0 0 0 0 0 0 0 0 0 0 0 0 0 0 0 0 0 0 0 0 0 0 0 0 0 0 0 0 0 0 0 0 0 0 0 0 0 0 0
-0 -0 0 0 0 0 0 0 0 0 0 0 0 0 0 0 0 0 0 0 0 0 0 0 0 0 0 0 0 0 0 0 0 0 0 0 0 0 0 0 0 0 0
0 0 0 0 0 0 0 0 0 0 0 0 0 0 0 0 0 0 0 0 0 0 0 0 0 0 0 0 0 0 0 0 0 0 0 0 0 0 0 0 0 0 0
0 0 0 0 0 0 0 0 -0 -0 0 0 0 0 0 0 0 0 0 0 0 0 0 0 0 0 0 0 0 0 0 0 0 0 0 0 0 0 0 0 0 0 0
0 0 0 0 0 0 0 0 0 0 0 0 0 0 0 0 0 0 0 0 0 0 0 0 0 0 0 0 0 0 0 0 0 0 0 0 0 0 0 0 0 0 0
Wind_Speed
8 7 6 5 3 1 1 2 2 4 4 6 6 7 8 9 9 9 11 12 13 13 13 14 15 15 12 12 11 12 12 12 14 14 13 14 16 15 13 12 12 11 11
7 6 5 3 1 1 1 3 4 5 6 7 8 9 10 11 11 12 14 14 15 16 16 16 17 14 16 14 13 14 14 14 15 17 14 14 15 14 14 14 13 11 12
6 5 3 1 1 1 3 4 6 7 8 10 11 12 13 13 13 14 14 15 15 16 16 16 17 17 17 15 15 15 14 14 13 14 14 12 11 12 14 14 14 11 12
5 4 3 2 2 3 5 6 8 9 10 11 12 13 13 14 14 13 13 13 14 14 14 15 17 17 17 16 14 15 14 14 13 12 12 12 11 12 12 11 10 9 9
4 4 4 2 2 4 6 8 8 8 9 10 10 10 11 10 8 10 12 14 14 15 15 16 17 18 20 16 13 14 14 12 11 11 12 12 12 11 10 8 9 9 9
4 3 3 2 4 5 6 6 6 6 7 7 8 9 9 7 9 10 13 15 15 15 15 14 14 15 16 17 18 20 19 16 14 13 12 14 16 14 10 8 8 9 7
3 1 1 3 5 5 5 5 6 6 6 7 8 9 9 6 6 10 13 15 15 13 13 12 11 11 15 14 14 16 17 19 20 17 16 16 16 15 13 12 10 9 7
2 1 3 4 4 5 5 6 6 6 6 7 7 8 9 5 2 9 16 15 14 13 13 13 12 13 13 13 13 14 15 16 16 13 12 14 14 14 13 12 10 6 2
2 4 5 5 5 5 5 6 6 6 6 7 7 7 8 6 5 10 15 12 12 14 14 14 14 13 13 14 14 14 14 14 12 11 13 14 15 14 9 5 4 3 3
5 6 6 6 5 5 5 5 5 5 6 7 7 7 8 8 7 10 13 9 11 12 12 13 14 13 14 14 13 13 13 12 10 10 8 7 7 5 4 1 0 1 0
6 7 6 5 4 4 4 4 5 6 6 7 8 8 7 7 8 9 13 11 10 11 11 10 9 11 14 14 14 12 12 11 10 7 4 3 4 4 6 6 5 3 2
7 6 5 4 4 4 4 4 5 6 7 8 8 8 7 8 9 12 15 15 15 13 11 10 10 14 15 15 11 10 12 10 4 1 2 3 4 5 6 6 8 8 7
6 5 4 4 4 5 4 5 5 6 6 7 7 8 9 9 10 13 15 17 19 13 11 16 17 16 14 9 7 7 4 1 3 3 3 4 4 4 4 5 8 9 10
5 4 4 4 5 6 5 6 6 6 7 7 8 9 10 10 10 11 11 11 13 12 11 13 13 12 10 8 6 6 6 5 4 4 4 4 4 4 5 5 6 6 7
5 4 4 5 6 5 6 6 7 7 7 7 7 7 8 9 12 17 12 10 10 11 12 8 7 7 8 7 7 7 6 5 4 4 5 5 5 5 6 6 7 8 8
5 5 5 5 6 6 5 4 3 3 3 5 6 7 8 10 16 17 18 17 16 16 10 8 8 8 8 7 7 6 6 6 5 5 5 6 5 6 6 7 7 8 8
6 6 6 6 6 5 6 6 6 3 2 2 5 10 12 15 15 17 18 17 13 13 8 8 8 8 7 7 6 6 6 6 5 6 6 6 5 6 6 6 6 7 7
7 6 6 6 6 6 6 6 5 6 7 6 6 9 14 15 14 15 16 13 10 10 9 9 8 8 7 7 7 7 6 6 6 6 6 6 5 4 5 6 7 8 9
8 7 6 6 6 6 5 5 5 6 6 7 8 9 12 12 11 13 13 9 9 9 9 9 8 8 8 7 6 6 6 6 6 6 5 5 4 4 6 8 9 11 11
8 7 6 5 6 5 5 5 5 5 5 6 7 9 10 10 9 10 10 9 9 9 9 9 8 8 8 7 7 6 6 6 6 5 5 5 4 5 7 8 8 9 9
6 5 0 5 7 6 6 6 6 6 6 6 6 8 11 8 8 10 9 9 9 9 9 8 8 8 8 7 6 6 7 6 5 5 4 4 5 6 7 7 8 8 8
5 6 6 7 7 8 7 7 8 8 8 8 7 7 9 8 8 8 9 9 9 8 8 7 7 7 7 7 7 6 6 6 6 5 5 5 6 6 7 7 7 7 9
5 6 6 6 6 6 7 8 8 8 9 9 8 8 8 8 8 9 9 9 9 8 8 8 7 7 7 6 6 6 6 6 6 5 4 5 6 6 7 8 9 9 10
5 6 7 7 7 7 8 8 8 9 9 10 9 9 9 8 8 9 8 8 8 8 8 8 8 10 12 9 6 6 7 7 7 5 5 5 6 7 7 8 9 11 11
7 7 7 7 7 7 8 8 8 9 9 9 9 9 9 9 9 9 8 8 8 8 10 9 8 9 11 12 10 8 9 10 9 8 5 6 8 8 8 10 9 10 10
8 8 7 7 7 7 8 8 8 9 9 9 9 9 9 10 10 10 9 9 9 8 9 8 11 12 13 10 11 11 10 10 10 11 6 5 7 7 8 8 10 9 9
Wind_Direction
116 108 102 96 92 76 21 347 338 330 322 308 307 301 295 291 289 287 285 290 286 288 288 289 292 294 294 294 292 287 283 279 278 279 277 277 280 282 284 283 280 272 260
115 110 101 92 74 342 347 334 314 301 298 300 296 291 288 288 288 286 287 289 290 292 293 295 295 296 295 294 292 287 284 279 275 277 276 276 277 279 279 276 275 273 273
117 115 103 82 39 330 322 312 302 295 292 292 290 288 288 290 291 290 290 292 294 295 298 298 298 298 296 294 292 289 287 283 279 278 279 279 277 275 280 277 278 280 284
113 102 88 68 17 323 309 303 297 295 294 294 295 297 300 302 301 305 309 307 303 301 299 297 295 295 294 295 293 291 287 284 282 282 282 282 278 276 276 281 287 290 290
116 103 94 66 340 307 304 305 307 309 310 314 317 318 319 315 347 349 327 311 308 303 299 296 298 301 299 292 285 285 287 286 286 284 284 285 283 282 283 291 289 289 282
113 99 76 346 317 320 325 332 341 350 352 346 341 335 331 354 32 352 323 312 305 302 303 306 304 297 293 290 281 276 276 281 286 287 287 285 285 287 288 281 274 272 267
121 88 347 334 339 355 10 24 20 7 355 344 341 337 334 18 24 334 322 309 303 306 305 299 296 297 298 291 289 287 281 276 273 275 278 279 283 283 282 274 262 258 255
117 14 6 8 34 52 44 29 10 355 348 342 342 338 329 352 8 319 324 311 308 306 302 299 296 293 290 291 292 288 284 282 279 278 278 282 283 280 270 262 261 256 217
52 30 35 54 68 51 32 16 3 352 352 340 349 337 332 340 0 325 326 318 310 311 311 309 303 295 287 283 286 284 284 284 281 279 284 286 290 288 273 242 214 203 202
49 61 75 72 57 40 26 6 4 351 352 343 347 337 333 336 344 323 327 320 312 312 309 305 299 294 294 290 290 287 286 291 302 305 301 302 311 346 14 45 148 205 175
78 92 85 72 56 34 21 6 350 350 0 349 340 334 333 337 337 337 331 328 321 313 307 308 309 305 298 292 286 281 280 289 294 292 304 332 357 22 38 46 42 32 35
100 98 83 52 21 21 8 355 0 1 358 352 344 341 344 345 346 343 326 322 322 315 310 313 319 318 311 301 291 282 283 283 267 307 28 24 31 44 53 60 63 61 56
109 93 67 45 34 16 2 14 21 12 0 355 353 351 348 344 342 340 329 325 322 320 316 321 325 324 321 314 315 319 312 67 87 73 59 48 45 51 61 69 71 69 62
99 77 58 41 46 52 26 25 22 13 8 4 358 348 340 337 341 341 332 326 325 328 329 329 330 330 337 345 1 35 52 55 61 71 66 59 57 56 56 61 69 70 68
81 63 54 55 50 46 49 36 20 37 17 353 349 339 332 334 333 327 327 331 334 335 332 341 352 355 10 24 35 42 45 44 48 51 59 64 64 60 53 57 74 77 73
69 57 52 53 48 37 33 61 103 36 357 325 327 331 336 332 329 335 341 339 340 340 346 359 2 8 19 29 35 40 41 40 39 43 55 64 66 63 63 70 80 82 84
57 45 47 44 43 38 28 18 17 27 16 356 357 351 347 340 341 344 345 341 351 355 4 4 6 11 17 24 31 38 46 48 46 51 60 67 66 65 69 77 81 78 76
68 62 45 49 34 33 27 19 12 6 5 9 12 5 349 342 344 349 346 350 6 8 5 1 2 5 11 19 27 35 46 52 53 56 65 72 71 67 65 68 69 74 77
48 49 49 46 39 34 24 16 15 15 11 5 3 4 353 346 354 2 358 7 4 4 360 358 358 358 1 10 23 38 54 62 63 64 69 75 77 72 73 77 78 73 77
78 35 10 38 40 35 24 18 19 18 19 14 10 5 352 355 4 2 3 3 2 1 358 354 355 357 357 1 16 36 53 56 60 63 65 64 60 63 72 77 82 85 87
79 89 82 36 36 27 26 24 25 26 29 26 21 14 354 359 3 358 358 358 358 356 354 351 352 354 356 358 12 37 47 44 44 56 60 55 55 63 70 74 77 80 88
58 49 45 41 41 28 15 27 27 29 32 36 27 20 8 11 7 1 358 355 353 353 351 349 352 354 352 355 4 22 34 32 28 35 42 45 52 62 71 75 75 77 86
55 50 47 41 40 41 31 33 29 28 29 32 31 26 22 17 9 4 360 355 352 353 354 355 357 358 356 356 3 14 22 19 15 20 32 46 59 67 72 75 75 78 83
49 40 38 39 38 35 36 34 31 30 29 28 28 26 25 22 18 10 4 357 356 357 358 357 359 2 7 8 9 22 20 5 354 1 38 66 75 77 78 80 80 84 85
49 44 43 40 35 34 35 35 32 30 30 28 26 24 22 20 20 17 12 8 8 8 8 7 5 5 8 17 17 14 5 1 1 350 23 72 83 82 82 83 86 95 101
55 51 47 43 39 36 34 33 33 31 30 27 25 23 21 20 19 17 17 15 14 16 15 11 11 18 15 13 9 2 357 354 350 342 342 69 84 84 87 89 92 93 96